Current weather by "City, St" or "zip code"  
 

Current Conditions: Hill Air Force Base, UT

Fair


56.0 F

Last Updated on Oct 31 2020, 11:58 am MDT
Humidity: 32%
Wind Speed: N 3.5 mph
Barometer 30.34 in
Dewpoint: 26.2 F
Visibility: 10.00 mi
Precip: --
Heat Index: NA
Wind Chill: NA
Current conditions at:

Hill Air Force Base, UT (KHIF)

Lat: 41.11112 Lon: 111.96229

Local Radar Image active severe weather and emergency alerts image image weather storm and storm spotter reports image weather observation monitoring service image
Local
Radar
Active
Alerts
Storm Reports Obs
Monitoring

Sign-up For Email & Text Message Weather Alert Notification Services



Advertise Here

Observation History for Hill Air Force Base, UT


Time Wind
(mph)
Vis
(mi)
Weather Precip (in) Temperature (F) Relative
Humidity
Wind
Chill
(F)
Heat
Index
(F)
Pressure
Air Dwpt altimeter
(in)
sea level
(mb)
Rmks
11:58 am MDT N 3.5 10.00 Fair -- 56.0 26.2 32% NA NA 30.34 1024.8
10:58 am MDT N 0.0 10.00 Fair -- 53.0 25.9 35% NA NA 30.32 1024.4
9:58 am MDT N 0.0 10.00 Fair -- 50.0 24.3 36% NA NA 30.31 1024.0
8:58 am MDT SE 3.5 10.00 Fair -- 42.0 21.0 43% NA NA 30.28 1023.6
7:58 am MDT SE 6.9 10.00 Fair -- 42.0 19.0 40% 38 NA 30.24 1022.9
6:58 am MDT S 6.9 10.00 Fair -- 40.0 19.2 43% 35 NA 30.22 1021.5
5:58 am MDT N 0.0 10.00 Fair -- 45.0 18.7 35% NA NA 30.19 1019.8
4:58 am MDT N 0.0 10.00 Fair -- 42.0 18.5 38% NA NA 30.17 1018.9
3:58 am MDT NE 3.5 10.00 Fair -- 50.0 18.7 29% NA NA 30.15 1017.6
2:58 am MDT SW 8.1 10.00 Fair -- 48.0 18.0 30% 44 NA 30.11 1016.5
1:58 am MDT S 8.1 10.00 Fair -- 51.0 18.1 27% 48 NA 30.09 1015.8
12:58 am MDT S 11.5 10.00 Fair -- 51.0 19.2 28% 47 NA 30.07 1015.1
11:58 pm MDT S 13.8 10.00 Fair -- 53.0 20.3 28% 49 NA 30.08 1015.7
10:58 pm MDT S 11.5 10.00 Fair -- 51.0 23.7 34% 47 NA 30.06 1015.6
9:58 pm MDT S 12.7 10.00 Fair -- 54.0 21.7 28% 50 NA 30.05 1015.6
8:58 pm MDT S 12.7 10.00 Fair -- 55.0 20.8 26% 52 NA 30.04 1015.2
7:58 pm MDT S 10.4 10.00 Fair -- 49.0 22.6 35% 45 NA 30.05 1016.2
6:58 pm MDT SE 5.8 10.00 Fair -- 56.0 22.3 27% 55 NA 30.05 1015.9
5:58 pm MDT N 0.0 10.00 Fair -- 60.0 22.3 23% NA NA 30.07 1015.9
4:58 pm MDT S 4.6 10.00 Fair -- 63.0 21.2 20% 64 NA 30.08 1016.0
3:58 pm MDT N 0.0 10.00 Fair -- 63.0 23.2 22% NA NA 30.10 1016.7
2:58 pm MDT SW 5.8 10.00 Fair -- 62.0 24.4 24% 62 NA 30.13 1017.7
1:58 pm MDT S 9.2 10.00 Fair -- 60.0 23.5 24% 59 NA 30.15 1018.4
12:58 pm MDT S 6.9 10.00 Fair -- 59.0 23.2 25% 58 NA 30.18 1019.5

Regional Weather Observation


Hill Air Force Base, UT (KHIF)

Fair
56.0 F

Logan-Cache Airport, UT (KLGU)

Fair
53.0 F

Salt Lake City, Salt Lake City International Airport, UT (KSLC)

A Few Clouds
59.0 F

Evanston, Evanston-Uinta County Burns Field, WY (KEVW)

Fair
51.0 F

Heber City Municipal-Russ McDonald Field Airport, UT (K36U)

Fair
63.0 F

Provo, Provo Municipal Airport, UT (KPVU)

Fair
50.0 F